Simultaneous Nadir Overpasses (SNOs) Predictions

Prediction of SNOs between GOES-16 and TERRA Satellite Orbit:

Table of predicted SNOs for the next 14.0 days since TLE Epoch: 2/15/2020
Index Date Time (GOES-16) GOES-16 Lat,Lon TERRA Lat,Lon Distance(km) Time Diff (sec)
1 02/16/2020 03:30:12 0.02, -75.20 0.10, -74.75 50.71 80
2 02/18/2020 03:18:03 0.03, -75.21 0.73, -71.80 386.55 80
3 02/18/2020 15:36:40 -0.03, -75.23 0.32, -76.98 197.94 80
4 02/20/2020 15:27:11 -0.04, -75.25 -0.31, -74.03 138.74 80
5 02/21/2020 03:45:56 0.04, -75.23 -0.79, -79.23 453.50 80
6 02/22/2020 15:15:02 -0.03, -75.27 -0.93, -71.08 476.24 80
7 02/23/2020 03:33:47 0.04, -75.26 -0.16, -76.28 115.78 80
8 02/25/2020 03:24:18 0.04, -75.29 0.47, -73.34 222.81 80
9 02/25/2020 15:42:54 -0.04, -75.32 0.64, -78.49 361.09 80
10 02/27/2020 15:30:45 -0.04, -75.36 0.00, -75.55 21.74 80




NCC Satellite Simultaneous Nadir Overpasses (SNOs) Prediction Service
